When you browse on this site, cookies collect data to enhance your experience and personalize the content and advertising you see.
Visit our Privacy Policy to learn more. By continuing to use the site, you agree to this use of cookies and data.

Hourly Weather Nakhchivan

Today, 4 July, Saturday

Time Temperature Precipitation Wind Pressure Humidity
00:00 +27°C° 0 mm 2 mps 688 mmHg 41%
01:00 +26°C° 0 mm 2 mps 688 mmHg 42%
02:00 +26°C° 0 mm 2 mps 688 mmHg 44%
03:00 +25°C° 0 mm 1 mps 688 mmHg 45%
04:00 +25°C° 0 mm 1 mps 688 mmHg 44%
05:00 +26°C° 0 mm 1 mps 688 mmHg 44%
06:00 +26°C° 0 mm 1 mps 688 mmHg 43%
07:00 +27°C° 0 mm 1 mps 688 mmHg 40%
08:00 +28°C° 0 mm 1 mps 688 mmHg 37%
09:00 +30°C° 0 mm 1 mps 688 mmHg 34%
10:00 +31°C° 0 mm 1 mps 688 mmHg 31%
11:00 +32°C° 0 mm 1 mps 688 mmHg 29%
12:00 +33°C° 0 mm 1 mps 688 mmHg 26%
13:00 +34°C° 0 mm 1 mps 688 mmHg 24%
14:00 +36°C° 0 mm 2 mps 688 mmHg 22%
15:00 +37°C° 0 mm 2 mps 687 mmHg 19%
16:00 +36°C° 0 mm 2 mps 687 mmHg 21%
17:00 +36°C° 0 mm 3 mps 687 mmHg 23%
18:00 +35°C° 0 mm 3 mps 687 mmHg 25%
19:00 +34°C° 0.1 mm 3 mps 687 mmHg 28%
20:00 +31°C° 0.1 mm 2 mps 688 mmHg 32%
21:00 +30°C° 0.1 mm 1 mps 688 mmHg 35%
22:00 +29°C° 0.2 mm 2 mps 688 mmHg 38%
23:00 +28°C° 0.2 mm 2 mps 687 mmHg 40%

Tomorrow, 5 July, Sunday

Time Temperature Precipitation Wind Pressure Humidity
00:00 +27°C° 0.2 mm 2 mps 687 mmHg 43%
01:00 +27°C° 0.1 mm 2 mps 687 mmHg 45%
02:00 +26°C° 0.1 mm 2 mps 686 mmHg 46%
03:00 +25°C° 0.1 mm 1 mps 686 mmHg 48%
04:00 +25°C° 0 mm 1 mps 686 mmHg 48%
05:00 +25°C° 0 mm 1 mps 686 mmHg 47%
06:00 +25°C° 0 mm 1 mps 686 mmHg 46%
07:00 +26°C° 0 mm 1 mps 686 mmHg 42%
08:00 +27°C° 0 mm 1 mps 686 mmHg 38%
09:00 +29°C° 0 mm 2 mps 686 mmHg 34%
10:00 +30°C° 0 mm 2 mps 686 mmHg 31%
11:00 +31°C° 0 mm 2 mps 686 mmHg 28%
12:00 +32°C° 0 mm 2 mps 686 mmHg 24%
13:00 +34°C° 0 mm 3 mps 685 mmHg 23%
14:00 +35°C° 0 mm 4 mps 685 mmHg 22%
15:00 +36°C° 0 mm 5 mps 685 mmHg 21%
16:00 +35°C° 0 mm 5 mps 685 mmHg 22%
17:00 +35°C° 0 mm 6 mps 685 mmHg 23%
18:00 +34°C° 0 mm 7 mps 685 mmHg 24%
19:00 +32°C° 0 mm 6 mps 685 mmHg 26%
20:00 +30°C° 0 mm 5 mps 685 mmHg 29%
21:00 +29°C° 0 mm 4 mps 685 mmHg 31%
22:00 +28°C° 0 mm 3 mps 685 mmHg 31%
23:00 +28°C° 0 mm 3 mps 685 mmHg 32%

Day after tomorrow, 6 July, Monday

Time Temperature Precipitation Wind Pressure Humidity
00:00 +27°C° 0 mm 2 mps 685 mmHg 32%
01:00 +26°C° 0 mm 2 mps 685 mmHg 32%
02:00 +26°C° 0 mm 2 mps 685 mmHg 32%
03:00 +25°C° 0 mm 1 mps 684 mmHg 32%
04:00 +25°C° 0 mm 1 mps 684 mmHg 32%
05:00 +26°C° 0 mm 1 mps 685 mmHg 31%
06:00 +26°C° 0 mm 1 mps 685 mmHg 31%
07:00 +27°C° 0 mm 1 mps 685 mmHg 29%
08:00 +28°C° 0 mm 1 mps 685 mmHg 26%
09:00 +29°C° 0 mm 1 mps 685 mmHg 23%
10:00 +30°C° 0 mm 2 mps 685 mmHg 22%
11:00 +32°C° 0 mm 2 mps 685 mmHg 20%
12:00 +34°C° 0 mm 2 mps 685 mmHg 18%
13:00 +35°C° 0 mm 3 mps 685 mmHg 17%
14:00 +36°C° 0 mm 4 mps 685 mmHg 17%
15:00 +37°C° 0 mm 5 mps 685 mmHg 17%
16:00 +36°C° 0 mm 6 mps 685 mmHg 17%
17:00 +36°C° 0 mm 7 mps 684 mmHg 18%
18:00 +35°C° 0 mm 8 mps 684 mmHg 19%
19:00 +33°C° 0 mm 6 mps 685 mmHg 21%
20:00 +32°C° 0 mm 5 mps 685 mmHg 23%
21:00 +29°C° 0 mm 3 mps 685 mmHg 25%
22:00 +29°C° 0 mm 3 mps 685 mmHg 27%
23:00 +28°C° 0 mm 2 mps 685 mmHg 28%

7 July, Tuesday

Time Temperature Precipitation Wind Pressure Humidity
00:00 +27°C° 0 mm 2 mps 685 mmHg 30%
01:00 +26°C° 0 mm 2 mps 684 mmHg 30%
02:00 +26°C° 0 mm 1 mps 684 mmHg 31%
03:00 +25°C° 0 mm 1 mps 684 mmHg 32%
04:00 +26°C° 0 mm 1 mps 684 mmHg 31%
05:00 +26°C° 0 mm 1 mps 684 mmHg 30%
06:00 +26°C° 0 mm 1 mps 685 mmHg 29%
07:00 +28°C° 0 mm 1 mps 685 mmHg 27%
08:00 +29°C° 0 mm 1 mps 685 mmHg 24%
09:00 +31°C° 0 mm 1 mps 685 mmHg 21%
10:00 +32°C° 0 mm 1 mps 685 mmHg 19%
11:00 +34°C° 0 mm 2 mps 685 mmHg 18%
12:00 +36°C° 0 mm 2 mps 685 mmHg 17%
13:00 +37°C° 0 mm 2 mps 685 mmHg 16%
14:00 +38°C° 0 mm 2 mps 685 mmHg 15%
15:00 +39°C° 0 mm 2 mps 684 mmHg 15%
16:00 +38°C° 0 mm 2 mps 684 mmHg 15%
17:00 +38°C° 0 mm 2 mps 684 mmHg 15%
18:00 +38°C° 0 mm 2 mps 684 mmHg 16%
19:00 +37°C° 0 mm 3 mps 684 mmHg 18%
20:00 +35°C° 0 mm 3 mps 685 mmHg 21%
21:00 +33°C° 0 mm 3 mps 685 mmHg 24%
22:00 +31°C° 0 mm 3 mps 684 mmHg 25%
23:00 +31°C° 0 mm 3 mps 684 mmHg 26%

8 July, Wednesday

Time Temperature Precipitation Wind Pressure Humidity
00:00 +30°C° 0 mm 2 mps 684 mmHg 26%
01:00 +29°C° 0 mm 2 mps 684 mmHg 27%
02:00 +28°C° 0 mm 1 mps 684 mmHg 29%
03:00 +28°C° 0 mm 1 mps 684 mmHg 30%
04:00 +28°C° 0 mm 1 mps 684 mmHg 29%
05:00 +29°C° 0 mm 1 mps 684 mmHg 29%
06:00 +27°C° 0 mm 0 mps 684 mmHg 29%
07:00 +28°C° 0 mm 0 mps 684 mmHg 26%
08:00 +32°C° 0 mm 1 mps 684 mmHg 23%
09:00 +33°C° 0 mm 1 mps 684 mmHg 21%
10:00 +34°C° 0 mm 1 mps 685 mmHg 19%
11:00 +36°C° 0 mm 1 mps 685 mmHg 17%
12:00 +37°C° 0 mm 1 mps 685 mmHg 16%
13:00 +39°C° 0 mm 2 mps 685 mmHg 15%
14:00 +40°C° 0 mm 3 mps 685 mmHg 14%
15:00 +40°C° 0 mm 3 mps 684 mmHg 13%
16:00 +40°C° 0 mm 3 mps 684 mmHg 15%
17:00 +39°C° 0 mm 3 mps 684 mmHg 16%
18:00 +38°C° 0 mm 2 mps 684 mmHg 17%
19:00 +37°C° 0 mm 3 mps 684 mmHg 20%
20:00 +35°C° 0 mm 4 mps 684 mmHg 24%
21:00 +34°C° 0 mm 5 mps 684 mmHg 27%
22:00 +33°C° 0 mm 4 mps 684 mmHg 30%
23:00 +31°C° 0 mm 3 mps 684 mmHg 33%

9 July, Thursday

Time Temperature Precipitation Wind Pressure Humidity
00:00 +30°C° 0 mm 2 mps 684 mmHg 37%
01:00 +29°C° 0 mm 2 mps 684 mmHg 38%
02:00 +28°C° 0 mm 2 mps 684 mmHg 40%
03:00 +28°C° 0 mm 2 mps 684 mmHg 41%
04:00 +28°C° 0 mm 2 mps 684 mmHg 41%
05:00 +28°C° 0 mm 2 mps 684 mmHg 41%
06:00 +28°C° 0 mm 2 mps 684 mmHg 41%
07:00 +29°C° 0 mm 2 mps 684 mmHg 38%
08:00 +31°C° 0 mm 2 mps 685 mmHg 35%
09:00 +32°C° 0 mm 2 mps 685 mmHg 31%
10:00 +34°C° 0 mm 2 mps 685 mmHg 29%
11:00 +35°C° 0 mm 3 mps 685 mmHg 26%
12:00 +36°C° 0 mm 3 mps 684 mmHg 23%
13:00 +36°C° 0 mm 4 mps 684 mmHg 22%
14:00 +37°C° 0 mm 4 mps 684 mmHg 21%
15:00 +39°C° 0 mm 5 mps 684 mmHg 20%
16:00 +36°C° 0 mm 5 mps 684 mmHg 25%
17:00 +34°C° 0 mm 5 mps 684 mmHg 30%
18:00 +33°C° 0 mm 5 mps 684 mmHg 35%
19:00 +30°C° 0.3 mm 5 mps 685 mmHg 40%
20:00 +28°C° 0.3 mm 5 mps 685 mmHg 45%
21:00 +27°C° 0.3 mm 5 mps 685 mmHg 50%
22:00 +26°C° 0.2 mm 4 mps 685 mmHg 52%
23:00 +26°C° 0.2 mm 3 mps 685 mmHg 54%
Show more